Zurück zum Katalog

STARLINK-36435

AktivKommunikationSSO
NORAD 67568·PAYLOAD·🇺🇸 United States

Gestartet Jan 25, 2026 von Vandenberg Space Force Base

Loading…

Nächste Überflüge (nächste 24 Stunden)

TLE

AktuellSource: CelesTrak SupGP

Epoche: Sep 14, 2026, 22:43 UTC

1 67568C 26016H   26257.94701389  .00009104  00000+0  28266-3 0  2577
2 67568  97.2840 316.7393 0001002 102.0709 220.7655 15.33428783    10

Verfolge STARLINK-36435 in Echtzeit mit AllMySat

Download on the App Store